Home   Weather   Woodbridge   Past weeks
Flag for USA

Past Weather in Woodbridge, Virginia, USA — Yesterday and Last 2 Weeks

Now
56 °F

Passing clouds.


Feels Like: 54 °F
Forecast: 59 / 49 °F
Wind: 9 mph from Northwest

Location: Reagan National Airport

Current Time: Oct 17, 2019 at 7:30:21 pm

Latest Report: Oct 17, 2019 at 6:57 pm


Visibility: 10 mi

Pressure: 29.78 "Hg

Humidity: 47%

Dew Point: 36 °F

Location of WoodbridgeLocation

Past Weather in Woodbridge — Graph

°F

Woodbridge Temperature Yesterday

Maximum temperature yesterday: 64 °F (at 9:27 am)
Minimum temperature yesterday: 52 °F (at 11:52 pm)
Average temperature yesterday: 60 °F

High & Low Weather Summary for the Past Weeks

 TemperatureHumidityPressure
High95 °F (Oct 2, 5:52 pm)96% (Oct 16, 1:52 pm)30.44 "Hg (Oct 16, 1:52 pm)
Low49 °F (Oct 5, 7:52 am)27% (Oct 14, 2:52 pm)29.51 "Hg (Oct 16, 4:52 pm)
Average65 °F64%30.07 "Hg
* Reported Oct 2 5:52 pm — Oct 17 5:52 pm, Woodbridge. Weather by CustomWeather, © 2019

Note: Actual official high and low records may vary slightly from our data, if they occured in-between our weather recording intervals... More about our weather records

Advertising

Woodbridge Weather History for the Previous 24 Hours

Scroll right to see more
 ConditionsComfort  
Time TempWeatherWind HumidityBarometerVisibility
5:52 pm
Thu, Oct 17
57 °FScattered clouds.20 mph46%29.75 "Hg10 mi
4:52 pm57 °FPartly sunny.16 mph47%29.73 "Hg10 mi
3:52 pm58 °FPartly sunny.21 mph46%29.71 "Hg10 mi
2:52 pm59 °FPartly sunny.23 mph44%29.70 "Hg10 mi
1:52 pm59 °FPartly sunny.25 mph42%29.69 "Hg10 mi
12:52 pm59 °FPartly sunny.15 mph42%29.69 "Hg10 mi
11:52 am60 °FPartly sunny.21 mph44%29.68 "Hg10 mi
9:52 am56 °FPartly sunny.13 mph49%29.66 "Hg10 mi
8:52 am55 °FPartly sunny.14 mph51%29.65 "Hg10 mi
7:52 am54 °FPartly sunny.13 mph53%29.63 "Hg10 mi
6:52 am54 °FPassing clouds.16 mph53%29.62 "Hg10 mi
5:52 am55 °FPassing clouds.18 mph53%29.61 "Hg10 mi
4:52 am55 °FPassing clouds.16 mph53%29.59 "Hg10 mi
3:52 am53 °FOvercast.9 mph59%29.57 "Hg10 mi
2:52 am53 °FOvercast.13 mph59%29.58 "Hg10 mi
1:52 am50 °FPassing clouds.6 mph63%29.59 "Hg10 mi
12:52 am52 °FPassing clouds.9 mph59%29.59 "Hg10 mi
11:52 pm
Wed, Oct 16
52 °FClear.7 mph59%29.59 "Hg10 mi
10:52 pm54 °FPassing clouds.14 mph55%29.58 "Hg10 mi
9:52 pm55 °FPassing clouds.18 mph55%29.58 "Hg10 mi
8:52 pm56 °FPassing clouds.23 mph60%29.56 "Hg10 mi
7:52 pm56 °FPassing clouds.17 mph62%29.54 "Hg10 mi
Weather by CustomWeather, © 2019

See weather overview